When you browse on this site, cookies collect data to enhance your experience and personalize the content and advertising you see.
Visit our Privacy Policy to learn more. By continuing to use the site, you agree to this use of cookies and data.
  • In Hungary
  • List of Countries
  • For 7 days
  • Water Temperature
  • Satellite Maps
  • Weather Map
  • News
  • Weather Widgets
  • user-avatar
    Login

    Hourly Weather Rubi

    Today, 19 January, Saturday

    Time Temperature Precipitation Wind Pressure Humidity
    00:00 +8°C° 0 mm 1 mps 749 mmHg 70%
    01:00 +8°C° 0 mm 1 mps 749 mmHg 70%
    02:00 +8°C° 0 mm 1 mps 748 mmHg 70%
    03:00 +6°C° 0 mm 2 mps 748 mmHg 70%
    04:00 +7°C° 0 mm 1 mps 748 mmHg 70%
    05:00 +7°C° 0 mm 1 mps 748 mmHg 70%
    06:00 +7°C° 0 mm 1 mps 748 mmHg 69%
    07:00 +7°C° 0 mm 1 mps 748 mmHg 66%
    08:00 +7°C° 0 mm 1 mps 748 mmHg 63%
    09:00 +8°C° 0 mm 1 mps 748 mmHg 59%
    10:00 +9°C° 0 mm 1 mps 748 mmHg 57%
    11:00 +10°C° 0 mm 1 mps 748 mmHg 54%
    12:00 +10°C° 0 mm 0 mps 748 mmHg 51%
    13:00 +11°C° 0 mm 1 mps 748 mmHg 50%
    14:00 +11°C° 0 mm 1 mps 747 mmHg 50%
    15:00 +12°C° 0 mm 2 mps 746 mmHg 49%
    16:00 +10°C° 0 mm 2 mps 746 mmHg 53%
    17:00 +9°C° 0 mm 2 mps 746 mmHg 58%
    18:00 +10°C° 0 mm 1 mps 746 mmHg 62%
    19:00 +9°C° 0 mm 1 mps 746 mmHg 63%
    20:00 +9°C° 0 mm 1 mps 746 mmHg 65%
    21:00 +9°C° 0 mm 1 mps 746 mmHg 66%
    22:00 +9°C° 0.1 mm 1 mps 746 mmHg 68%
    23:00 +9°C° 0.1 mm 1 mps 746 mmHg 69%

    Tomorrow, 20 January, Sunday

    Time Temperature Precipitation Wind Pressure Humidity
    00:00 +8°C° 0.1 mm 0 mps 745 mmHg 70%
    01:00 +9°C° 0.2 mm 1 mps 745 mmHg 72%
    02:00 +9°C° 0.2 mm 1 mps 745 mmHg 74%
    03:00 +7°C° 0.2 mm 2 mps 745 mmHg 76%
    04:00 +8°C° 0.4 mm 2 mps 745 mmHg 77%
    05:00 +8°C° 0.4 mm 2 mps 744 mmHg 79%
    06:00 +8°C° 0.4 mm 3 mps 744 mmHg 80%
    07:00 +8°C° 0.8 mm 3 mps 745 mmHg 81%
    08:00 +8°C° 0.8 mm 3 mps 745 mmHg 81%
    09:00 +8°C° 0.8 mm 3 mps 745 mmHg 81%
    10:00 +8°C° 0.5 mm 3 mps 745 mmHg 77%
    11:00 +9°C° 0.5 mm 3 mps 745 mmHg 72%
    12:00 +9°C° 0.5 mm 3 mps 745 mmHg 68%
    13:00 +10°C° 0 mm 3 mps 745 mmHg 63%
    14:00 +10°C° 0 mm 3 mps 745 mmHg 59%
    15:00 +12°C° 0 mm 2 mps 745 mmHg 54%
    16:00 +10°C° 0 mm 2 mps 746 mmHg 58%
    17:00 +10°C° 0 mm 2 mps 746 mmHg 62%
    18:00 +9°C° 0 mm 2 mps 747 mmHg 65%
    19:00 +9°C° 0 mm 2 mps 747 mmHg 67%
    20:00 +8°C° 0 mm 2 mps 748 mmHg 68%
    21:00 +8°C° 0 mm 2 mps 748 mmHg 70%
    22:00 +7°C° 0 mm 2 mps 748 mmHg 71%
    23:00 +7°C° 0 mm 2 mps 749 mmHg 71%

    Day after tomorrow, 21 January, Monday

    Time Temperature Precipitation Wind Pressure Humidity
    00:00 +8°C° 0 mm 1 mps 749 mmHg 72%
    01:00 +8°C° 0 mm 1 mps 749 mmHg 73%
    02:00 +7°C° 0 mm 1 mps 749 mmHg 73%
    03:00 +7°C° 0 mm 1 mps 749 mmHg 74%
    04:00 +7°C° 0 mm 1 mps 749 mmHg 74%
    05:00 +7°C° 0 mm 1 mps 749 mmHg 75%
    06:00 +7°C° 0 mm 1 mps 749 mmHg 75%
    07:00 +7°C° 0 mm 1 mps 750 mmHg 72%
    08:00 +8°C° 0 mm 1 mps 750 mmHg 70%
    09:00 +9°C° 0 mm 1 mps 750 mmHg 67%
    10:00 +10°C° 0 mm 1 mps 751 mmHg 64%
    11:00 +11°C° 0 mm 1 mps 751 mmHg 62%
    12:00 +12°C° 0 mm 1 mps 751 mmHg 59%
    13:00 +12°C° 0.1 mm 1 mps 751 mmHg 59%
    14:00 +12°C° 0.1 mm 1 mps 751 mmHg 59%
    15:00 +12°C° 0.1 mm 2 mps 751 mmHg 59%
    16:00 +10°C° 0.2 mm 2 mps 751 mmHg 64%
    17:00 +10°C° 0.2 mm 2 mps 751 mmHg 68%
    18:00 +9°C° 0.2 mm 2 mps 751 mmHg 73%
    19:00 +8°C° 0.2 mm 2 mps 752 mmHg 75%
    20:00 +8°C° 0.2 mm 2 mps 752 mmHg 77%
    21:00 +8°C° 0.2 mm 2 mps 752 mmHg 79%
    22:00 +7°C° 0.1 mm 2 mps 752 mmHg 78%
    23:00 +7°C° 0.1 mm 2 mps 752 mmHg 77%

    22 January, Tuesday

    Time Temperature Precipitation Wind Pressure Humidity
    00:00 +7°C° 0.1 mm 2 mps 752 mmHg 76%
    01:00 +6°C° 0 mm 2 mps 752 mmHg 72%
    02:00 +6°C° 0 mm 2 mps 752 mmHg 68%
    03:00 +5°C° 0 mm 2 mps 751 mmHg 64%
    04:00 +5°C° 0 mm 2 mps 751 mmHg 62%
    05:00 +5°C° 0 mm 2 mps 751 mmHg 60%
    06:00 +4°C° 0 mm 2 mps 751 mmHg 58%
    07:00 +5°C° 0 mm 2 mps 750 mmHg 56%
    08:00 +5°C° 0 mm 2 mps 750 mmHg 55%
    09:00 +5°C° 0 mm 2 mps 750 mmHg 53%
    10:00 +6°C° 0 mm 2 mps 749 mmHg 49%
    11:00 +7°C° 0 mm 2 mps 748 mmHg 45%
    12:00 +10°C° 0 mm 1 mps 747 mmHg 42%
    13:00 +9°C° 0 mm 2 mps 746 mmHg 43%
    14:00 +9°C° 0 mm 3 mps 745 mmHg 44%
    15:00 +10°C° 0 mm 4 mps 744 mmHg 46%
    16:00 +8°C° 0 mm 4 mps 744 mmHg 50%
    17:00 +8°C° 0 mm 4 mps 743 mmHg 55%
    18:00 +8°C° 0 mm 4 mps 743 mmHg 60%
    19:00 +8°C° 0 mm 3 mps 743 mmHg 59%
    20:00 +8°C° 0 mm 3 mps 742 mmHg 59%
    21:00 +8°C° 0 mm 3 mps 742 mmHg 58%
    22:00 +7°C° 0 mm 3 mps 742 mmHg 61%
    23:00 +7°C° 0 mm 2 mps 741 mmHg 63%

    23 January, Wednesday

    Time Temperature Precipitation Wind Pressure Humidity
    00:00 +6°C° 0 mm 2 mps 741 mmHg 66%
    01:00 +6°C° 0 mm 2 mps 740 mmHg 68%
    02:00 +5°C° 0 mm 2 mps 739 mmHg 70%
    03:00 +5°C° 0 mm 2 mps 739 mmHg 72%
    04:00 +4°C° 0 mm 4 mps 737 mmHg 72%
    05:00 +5°C° 0 mm 5 mps 736 mmHg 71%
    06:00 +4°C° 0 mm 6 mps 735 mmHg 71%
    07:00 +5°C° 0.1 mm 7 mps 734 mmHg 67%
    08:00 +6°C° 0.1 mm 9 mps 734 mmHg 64%
    09:00 +6°C° 0.1 mm 10 mps 733 mmHg 60%
    10:00 +8°C° 0 mm 7 mps 733 mmHg 57%
    11:00 +9°C° 0 mm 5 mps 733 mmHg 53%
    12:00 +12°C° 0 mm 2 mps 733 mmHg 49%
    13:00 +11°C° 0.2 mm 4 mps 733 mmHg 43%
    14:00 +9°C° 0.2 mm 5 mps 733 mmHg 36%
    15:00 +9°C° 0.2 mm 6 mps 733 mmHg 29%
    16:00 +8°C° 0 mm 6 mps 733 mmHg 33%
    17:00 +7°C° 0 mm 6 mps 734 mmHg 36%
    18:00 +5°C° 0 mm 6 mps 734 mmHg 39%
    19:00 +5°C° 0 mm 5 mps 735 mmHg 41%
    20:00 +4°C° 0 mm 4 mps 735 mmHg 43%
    21:00 +4°C° 0 mm 3 mps 735 mmHg 44%
    22:00 +4°C° 0 mm 3 mps 735 mmHg 48%
    23:00 +3°C° 0 mm 3 mps 734 mmHg 52%

    24 January, Thursday

    Time Temperature Precipitation Wind Pressure Humidity
    00:00 +3°C° 0 mm 3 mps 733 mmHg 56%
    01:00 +3°C° 0 mm 4 mps 733 mmHg 58%
    02:00 +3°C° 0 mm 4 mps 733 mmHg 61%
    03:00 +2°C° 0 mm 5 mps 732 mmHg 63%
    04:00 +2°C° 0 mm 7 mps 733 mmHg 56%
    05:00 +1°C° 0 mm 8 mps 733 mmHg 49%
    06:00 +1°C° 0 mm 10 mps 733 mmHg 43%
    07:00 +1°C° 0 mm 10 mps 734 mmHg 39%
    08:00 +1°C° 0 mm 10 mps 734 mmHg 35%
    09:00 +1°C° 0 mm 11 mps 735 mmHg 31%
    10:00 +2°C° 0 mm 11 mps 734 mmHg 29%
    11:00 +3°C° 0 mm 10 mps 734 mmHg 27%
    12:00 +5°C° 0 mm 10 mps 734 mmHg 25%
    13:00 +5°C° 0 mm 10 mps 734 mmHg 24%
    14:00 +5°C° 0 mm 10 mps 734 mmHg 23%
    15:00 +6°C° 0 mm 10 mps 734 mmHg 21%
    16:00 +5°C° 0 mm 9 mps 734 mmHg 22%
    17:00 +4°C° 0 mm 8 mps 734 mmHg 22%
    18:00 +3°C° 0 mm 7 mps 735 mmHg 23%
    19:00 +3°C° 0 mm 7 mps 735 mmHg 26%
    20:00 +2°C° 0 mm 6 mps 735 mmHg 30%
    21:00 +1°C° 0 mm 6 mps 736 mmHg 33%
    22:00 +1°C° 0 mm 6 mps 736 mmHg 35%
    23:00 +1°C° 0 mm 5 mps 736 mmHg 37%
    Show more